Regional Weather Roundup
Issued by NWS Cleveland, OH

Home | Current Version | Previous Version | Text Only | Print | Product List | Glossary Off
Versions: 1 2 3 4 5 6 7 8 9 10 11 12 13 14 15 16 17 18 19 20 21 22 23 24 25 26 27 28 29 30 31 32 33 34 35 36 37 38 39 40 41 42 43 44 45 46 47 48 49 50

000
ASUS41 KCLE 272012
RWRCLE
OHIO REGIONAL WEATHER ROUNDUP
NATIONAL WEATHER SERVICE WILMINGTON, OH
400 PM EDT SUN MAY 27 2018

NOTE: "FAIR" INDICATES FEW OR NO CLOUDS BELOW 12,000 FEET WITH NO
SIGNIFICANT WEATHER AND/OR OBSTRUCTIONS TO VISIBILITY.

OHZ001>008-015>018-024>027-034-035-043-044-272100-
   NORTHWEST OHIO

CITY           SKY/WX    TMP DP  RH WIND       PRES   REMARKS
DEFIANCE       FAIR      91  63  39 VRB3      29.90S HX  92
FINDLAY        FAIR      92  62  36 N5        29.90S HX  92
TOLEDO EXPRESS FAIR      92  58  31 W6        29.89S HX  91
TOLEDO EXEC    FAIR      90  62  39 NW7       29.90S HX  90
LIMA           FAIR      89  60  37 N7        29.91F
$$

OHZ009>014-019>023-028>033-038-089-272100-
   NORTHEAST OHIO

CITY           SKY/WX    TMP DP  RH WIND       PRES   REMARKS
CLE-HOPKINS    PTSUNNY   86  69  56 VRB7      29.93S HX  90
CLE-LAKEFRONT  FAIR      80  67  64 N8        29.91R
CUY CO. ARPT   PTSUNNY   86  68  54 N10       29.93S
LORAIN-ELYRIA  FAIR      86  64  47 N7        29.92S
ASHTABULA      FAIR      82  66  58 CALM      29.93S
AKRON-CANTON   PTSUNNY   83  66  56 CALM      29.94S
WOOSTER        FAIR      82  69  64 S6        29.94F
MANSFIELD      PTSUNNY   87  65  47 N7        29.94S
YOUNGSTOWN     PTSUNNY   83  66  56 CALM      29.94S
$$

OHZ042-051>053-060>062-070>072-077>081-272100-
  SOUTHWEST OHIO

CITY           SKY/WX    TMP DP  RH WIND       PRES   REMARKS
CINC-COVINGTON FAIR      87  67  51 S3        29.91F HX  90
CINC-LUNKEN    FAIR      88  71  57 SW5       29.89F HX  94
HAMILTON       FAIR      89  68  49 N3        29.90F HX  93
DAYTON         FAIR      89  64  43 N5        29.92F HX  90
WRIGHT-PAT AFB FAIR      90  63  40 NW7       29.90F HX  90
DAYTON GENERAL FAIR      88  61  40 CALM      29.90F
WILMINGTON     FAIR      88  69  53 CALM      29.91S HX  92
$$

OHZ036-037-039>041-045>050-054>059-063>069-073>076-082>088-272100-
  CENTRAL AND SOUTHEAST OHIO

CITY           SKY/WX    TMP DP  RH WIND       PRES   REMARKS
COLUMBUS       PTSUNNY   88  65  46 NE5       29.90F HX  90
OSU AIRPORT    FAIR      89  62  40 CALM      29.91S
BOLTON FIELD   SUNNY     88  68  51 CALM      29.92S HX  91
RICKENBACK AFB FAIR      85  66  52 MISG      29.90F
NEWARK         FAIR      87  67  51 E6        29.91F HX  90
MARION         FAIR      88  64  44 W7        29.92S
LANCASTER      PTSUNNY   88  68  51 N7        29.91F HX  91
ZANESVILLE     FAIR      85  68  56 N7        29.93F
NEW PHILLY     FAIR      83  68  60 VRB3      29.94S
$$



USA.gov is the U.S. government's official web portal to all federal, state and local government web resources and services.